Torna al catalogo

COSMOS 2454

AttivoNavigazionePO
NORAD 35635·PAYLOAD·🇷🇺 Russia

Lanciato Jul 21, 2009 da Plesetsk Cosmodrome

Loading…

Prossimi Passaggi (prossime 24 ore)

TLE

AggiornatoSource: Space-Track

Epoca: Sep 14, 2026, 21:54 UTC

1 35635U 09039A   26257.91293447  .00000061  00000-0  36831-4 0  9996
2 35635  82.9579 319.2492 0019247   6.7242 172.1066 13.89958969869865

Traccia COSMOS 2454 in tempo reale con AllMySat

Download on the App Store